Weather History for Albertville, AL

Change the Weather History Date:

Saturday, February 16, 2013

  Actual Average (KGAD) Record (KGAD)
Temperature  
Mean Temperature 34 °F -  
Max Temperature 39 °F 55 °F 80 °F (1945)
Min Temperature 30 °F 34 °F 19 °F (1943)
Degree Days  
Heating Degree Days 30    
Moisture  
Dew Point 20 °F    
Average Humidity 58    
Maximum Humidity 81    
Minimum Humidity 33    
Precipitation  
Precipitation 0.00 in - - ()
Sea Level Pressure  
Sea Level Pressure 30.10 in    
Wind  
Wind Speed 9 mph (NW)    
Max Wind Speed 20 mph    
Max Gust Speed 26 mph    
Visibility 10 miles    
Events      
Averages and records for this station are not official NWS values.
T = Trace of Precipitation, MM = Missing Value Source: NWS Daily Summary

Daily Weather History Graph

Daily Weather History Graph

Search for Another Location

Airport:

Trip Planner

Search our weather history database for the weather conditions in past years. The results will help you decide how hot, cold, wet, or windy it might be!

Date:

Astronomy

Feb. 16, 2013 Rise Set
Actual Time 6:28 AM CST 5:29 PM CST
Civil Twilight 6:03 AM CST 5:55 PM CST
Nautical Twilight 5:33 AM CST 6:24 PM CST
Astronomical Twilight 5:04 AM CST 6:54 PM CST
Moon 10:00 AM CST (2/16) No Moon Set
Length of Visible Light 11h 52m
Length of Day
11h 01m
Waxing Crescent, 39% of the Moon is Illuminated
Feb 16
Waxing Crescent
Feb 17
First Quarter
Feb 25
Full
Mar 4
Last Quarter
Mar 11
New

Hourly Weather History & Observations

Time (CST) Temp. Windchill Dew Point Humidity Pressure Visibility Wind Dir Wind Speed Gust Speed Precip Events Conditions
12:15 AM 39.2 °F 33.6 °F 30.2 °F 70% 30.07 in 10.0 mi North 8.1 mph - N/A   Mostly Cloudy
12:35 AM 37.4 °F 32.8 °F 30.2 °F 75% 30.07 in 10.0 mi North 5.8 mph - N/A   Mostly Cloudy
12:55 AM 37.4 °F 31.4 °F 30.2 °F 75% 30.06 in 10.0 mi North 8.1 mph - N/A   Mostly Cloudy
1:15 AM 37.4 °F 32.1 °F 30.2 °F 75% 30.04 in 10.0 mi North 6.9 mph - N/A   Scattered Clouds
1:35 AM 37.4 °F 32.1 °F 30.2 °F 75% 30.04 in 10.0 mi NNW 6.9 mph - N/A   Clear
1:55 AM 35.6 °F 30.7 °F 30.2 °F 81% 30.04 in 10.0 mi NNW 5.8 mph - N/A   Clear
2:15 AM 35.6 °F 29.2 °F 28.4 °F 75% 30.04 in 10.0 mi NNW 8.1 mph - N/A   Scattered Clouds
2:35 AM 35.6 °F 28.6 °F 28.4 °F 75% 30.04 in 10.0 mi NNW 9.2 mph - N/A   Mostly Cloudy
2:55 AM 35.6 °F 28.6 °F 26.6 °F 70% 30.04 in 10.0 mi NNW 9.2 mph - N/A   Overcast
3:15 AM 35.6 °F 28.0 °F 26.6 °F 70% 30.04 in 10.0 mi NNW 10.4 mph - N/A   Overcast
3:55 AM 33.8 °F 25.8 °F 24.8 °F 70% 30.04 in 10.0 mi NNW 10.4 mph - N/A   Mostly Cloudy
4:15 AM 33.8 °F 25.8 °F 24.8 °F 70% 30.05 in 10.0 mi NNW 10.4 mph - N/A   Scattered Clouds
4:35 AM 33.8 °F 27.0 °F 23.0 °F 65% 30.05 in 10.0 mi North 8.1 mph - N/A   Mostly Cloudy
4:55 AM 32.0 °F 24.8 °F 23.0 °F 69% 30.06 in 10.0 mi NNW 8.1 mph - N/A   Mostly Cloudy
5:15 AM 32.0 °F 25.6 °F 23.0 °F 69% 30.06 in 10.0 mi NNW 6.9 mph - N/A   Mostly Cloudy
5:55 AM 32.0 °F 24.2 °F 23.0 °F 69% 30.07 in 10.0 mi NNW 9.2 mph - N/A   Scattered Clouds
6:15 AM 32.0 °F 25.6 °F 23.0 °F 69% 30.06 in 10.0 mi NNW 6.9 mph - N/A   Clear
6:55 AM 32.0 °F 26.4 °F 23.0 °F 69% 30.07 in 10.0 mi NW 5.8 mph - N/A   Clear
7:15 AM 32.0 °F 24.2 °F 21.2 °F 64% 30.07 in 10.0 mi NW 9.2 mph - N/A   Clear
7:35 AM 32.0 °F 24.8 °F 21.2 °F 64% 30.08 in 10.0 mi NW 8.1 mph - N/A   Clear
7:55 AM 32.0 °F 23.6 °F 21.2 °F 64% 30.08 in 10.0 mi NNW 10.4 mph - N/A   Clear
8:15 AM 32.0 °F 23.0 °F 21.2 °F 64% 30.09 in 10.0 mi NW 11.5 mph - N/A   Clear
8:35 AM 32.0 °F 24.2 °F 21.2 °F 64% 30.09 in 10.0 mi NNW 9.2 mph - N/A   Clear
8:55 AM 33.8 °F 25.8 °F 21.2 °F 60% 30.09 in 10.0 mi NW 10.4 mph - N/A   Clear
9:15 AM 33.8 °F 24.3 °F 19.4 °F 56% 30.09 in 10.0 mi NW 13.8 mph 19.6 mph N/A   Clear
9:35 AM 35.6 °F 27.1 °F 19.4 °F 52% 30.10 in 10.0 mi NNW 12.7 mph 16.1 mph N/A   Clear
11:35 AM 35.6 °F 27.1 °F 12.2 °F 38% 30.10 in 10.0 mi NNW 12.7 mph 26.5 mph N/A   Overcast
12:15 PM 37.4 °F 27.8 °F 14.0 °F 38% 30.09 in 10.0 mi NNW 17.3 mph 24.2 mph N/A   Mostly Cloudy
12:35 PM 37.4 °F 29.3 °F 12.2 °F 36% 30.08 in 10.0 mi NNW 12.7 mph 23.0 mph N/A   Mostly Cloudy
12:55 PM 39.2 °F 29.6 °F 14.0 °F 36% 30.08 in 10.0 mi NNW 19.6 mph 25.3 mph N/A   Mostly Cloudy
1:15 PM 37.4 °F 28.5 °F 12.2 °F 36% 30.08 in 10.0 mi NNW 15.0 mph 25.3 mph N/A   Scattered Clouds
1:35 PM 39.2 °F 29.8 °F 12.2 °F 33% 30.08 in 10.0 mi NW 18.4 mph 25.3 mph N/A   Mostly Cloudy
1:55 PM 37.4 °F 28.5 °F 12.2 °F 36% 30.08 in 10.0 mi NNW 15.0 mph 24.2 mph N/A   Overcast
2:15 PM 39.2 °F 30.5 °F 14.0 °F 36% 30.08 in 10.0 mi NW 16.1 mph 21.9 mph N/A   Overcast
2:35 PM 37.4 °F 28.2 °F 12.2 °F 36% 30.08 in 10.0 mi NW 16.1 mph 25.3 mph N/A   Mostly Cloudy
2:55 PM 37.4 °F 28.5 °F 14.0 °F 38% 30.08 in 10.0 mi NNW 15.0 mph 21.9 mph N/A   Mostly Cloudy
3:15 PM 35.6 °F 28.0 °F 14.0 °F 41% 30.09 in 10.0 mi NW 10.4 mph 21.9 mph N/A   Mostly Cloudy
3:55 PM 35.6 °F 28.0 °F 15.8 °F 44% 30.09 in 10.0 mi WNW 10.4 mph 18.4 mph N/A   Mostly Cloudy
4:15 PM 35.6 °F 29.9 °F 17.6 °F 48% 30.09 in 10.0 mi NW 6.9 mph 16.1 mph N/A   Mostly Cloudy
4:35 PM 33.8 °F 24.8 °F 21.2 °F 60% 30.10 in 10.0 mi West 12.7 mph 16.1 mph N/A   Overcast
4:55 PM 32.0 °F 24.2 °F 23.0 °F 69% 30.10 in 10.0 mi WNW 9.2 mph - N/A   Overcast
5:15 PM 33.8 °F 27.0 °F 21.2 °F 60% 30.10 in 10.0 mi West 8.1 mph - N/A   Scattered Clouds
5:55 PM 33.8 °F 26.4 °F 19.4 °F 56% 30.12 in 10.0 mi NW 9.2 mph - N/A   Mostly Cloudy
6:15 PM 32.0 °F 24.8 °F 21.2 °F 64% 30.13 in 10.0 mi NNW 8.1 mph 19.6 mph N/A   Mostly Cloudy
6:35 PM 32.0 °F 25.6 °F 21.2 °F 64% 30.13 in 10.0 mi NW 6.9 mph - N/A   Scattered Clouds
7:15 PM 32.0 °F 28.7 °F 21.2 °F 64% 30.14 in 10.0 mi WNW 3.5 mph - N/A   Scattered Clouds
7:35 PM 32.0 °F 27.5 °F 21.2 °F 64% 30.15 in 10.0 mi NW 4.6 mph - N/A   Scattered Clouds
7:55 PM 32.0 °F 26.4 °F 21.2 °F 64% 30.15 in 10.0 mi WNW 5.8 mph - N/A   Scattered Clouds
8:15 PM 32.0 °F 26.4 °F 21.2 °F 64% 30.15 in 10.0 mi WNW 5.8 mph - N/A   Clear
9:15 PM 32.0 °F 26.4 °F 17.6 °F 55% 30.17 in 10.0 mi WNW 5.8 mph - N/A   Clear
9:55 PM 30.2 °F 24.3 °F 15.8 °F 55% 30.18 in 10.0 mi WNW 5.8 mph - N/A   Clear
10:15 PM 30.2 °F 25.4 °F 14.0 °F 51% 30.18 in 10.0 mi WNW 4.6 mph - N/A   Clear
10:35 PM 30.2 °F 25.4 °F 14.0 °F 51% 30.17 in 10.0 mi WNW 4.6 mph - N/A   Clear
10:55 PM 30.2 °F 25.4 °F 14.0 °F 51% 30.18 in 10.0 mi West 4.6 mph - N/A   Clear
11:15 PM 30.2 °F 25.4 °F 14.0 °F 51% 30.18 in 10.0 mi WNW 4.6 mph - N/A   Clear
11:35 PM 30.2 °F 25.4 °F 14.0 °F 51% 30.18 in 10.0 mi WNW 4.6 mph - N/A   Clear
11:55 PM 30.2 °F 25.4 °F 14.0 °F 51% 30.19 in 10.0 mi West 4.6 mph - N/A   Clear